Location: Champs
(48.8539°N, 2.6040°E)
Time: 12:34:20
(UTC+00:00)

Cosmos 1538 Rocket - Pass Details

Date: 30 May 2022
Orbit: 752 x 791 km, 74.0° (Epoch: 28 June)

Event Time Altitude Azimuth Distance (km) Brightness Sun altitude
Rises 22:13:56 0° 324° (NW) 3,244 8.8 -16.3°
Reaches altitude 10° 22:16:58 10° 307° (NW) 2,305 7.4 -16.5°
Maximum altitude 22:20:28 19° 264° (W) 1,777 6.1 -16.7°
Drops below altitude 10° 22:23:57 10° 222° (SW) 2,280 6.2 -16.9°
Enters shadow 22:24:27 - 218° (SW) 2,415 6.3 -16.9°
